Regional Weather Roundup
Issued by NWS

Home | Current Version | Previous Version | Graphics & Text | Print | Product List | Glossary On
Versions: 1 2 3 4 5 6 7 8 9 10 11 12 13 14 15 16 17 18 19 20 21 22 23 24 25 26 27 28 29 30 31 32 33 34 35 36 37 38 39 40 41 42 43 44 45 46 47 48 49 50
444
ASUS43 KBIS 260931
RWRND
NORTH DAKOTA REGIONAL WEATHER ROUNDUP
NATIONAL WEATHER SERVICE EASTERN NORTH DAKOTA/GRAND FORKS ND
400 AM CDT FRI MAY 26 2017

  NOTE: "FAIR" INDICATES FEW OR NO CLOUDS BELOW 12,000 FEET WITH NO
  SIGNIFICANT WEATHER AND/OR OBSTRUCTIONS TO VISIBILITY.

NDZ001>003-009>011-017-261000-
...NORTHWEST NORTH DAKOTA...

CITY           SKY/WX    TMP DP  RH WIND       PRES   REMARKS
WILLISTON      CLOUDY    50  41  71 W13       29.67R
MINOT          FAIR      51  43  74 SW12      29.60R
MINOT AFB      FAIR      49  44  81 W16       29.59R
$$

NDZ018>021-031>035-040>046-261000-
...SOUTHWEST NORTH DAKOTA...

CITY           SKY/WX    TMP DP  RH WIND       PRES   REMARKS
BISMARCK       FAIR      51  43  74 W6        29.67S
DICKINSON      CLOUDY    49  36  61 W18       29.69S
GARRISON         N/A     48  42  80 W16       29.64R
HETTINGER      CLOUDY    46  40  79 W13       29.76R
$$

NDZ004>008-012>016-024-026-027-054-261000-
...NORTHEAST NORTH DAKOTA...

CITY           SKY/WX    TMP DP  RH WIND       PRES   REMARKS
GRAND FORKS    FAIR      47  45  93 S6        29.57S
GRAND FORKS AF FAIR      48  44  86 W8        29.57S
DEVILS LAKE    FAIR      51  45  79 SW8       29.60R
$$

NDZ022-023-025-028>030-036>039-047>053-261000-
...SOUTHEAST NORTH DAKOTA...

CITY           SKY/WX    TMP DP  RH WIND       PRES   REMARKS
JAMESTOWN      FAIR      49  43  80 SW7       29.63R
FARGO          FAIR      53  51  93 S8        29.60R
WAHPETON       FAIR      48  45  87 S5        29.63R
$$




USA.gov is the U.S. government's official web portal to all federal, state and local government web resources and services.